This demonstration page uses our WeatherBlox Daily Observations layout. Learn more.

Left ArrowRight Arrow

Hourly Observations for April 21, 2018

Temp ( °F °C ) Dew Point ( °F °C ) Humidity (%) Winds ( mph kmh ) Pressure ( in mb ) Visibility ( mi km ) Precip ( " mm )
12:59 am 00:59 Clear 43 6.1 35 1.7 74 74 Calm 30.39 1029 10 16 0.00 0.00
1:59 am 01:59 Clear 41 5 35 1.7 79 79 Calm 30.37 1029 10 16 0.00 0.00
2:59 am 02:59 Clear 44 6.7 36 2.2 73 73 SSW 3 6 30.39 1029 10 16 0.00 0.00
3:59 am 03:59 Clear 44 6.7 37 2.8 76 76 W 5 7 30.40 1030 10 16 0.00 0.00
4:59 am 04:59 Clear 40 4.4 36 2.2 86 86 Calm 30.42 1030 10 16 0.00 0.00
5:59 am 05:59 Mostly Clear 45 7.2 40 4.4 83 83 N 8 13 30.43 1031 10 16 0.00 0.00
6:59 am 06:59 Partly Cloudy 41 5 37 2.8 86 86 Calm 30.45 1031 10 16 0.00 0.00
7:59 am 07:59 Partly Cloudy 49 9.4 38 3.3 66 66 ENE 12 19 30.46 1032 10 16 0.00 0.00
8:59 am 08:59 Partly Cloudy 50 10 38 3.3 63 63 NE 12 19 30.48 1032 10 16 0.00 0.00
9:59 am 09:59 Mostly Cloudy 51 10.6 38 3.3 61 61 NE 9 15 30.49 1032 10 16 0.00 0.00
10:59 am 10:59 Partly Cloudy 52 11.1 39 3.9 61 61 NE 9 15 30.50 1033 10 16 0.00 0.00
11:59 am 11:59 Partly Cloudy 53 11.7 38 3.3 57 57 ENE 8 13 30.48 1032 10 16 0.00 0.00
12:59 pm 12:59 Partly Cloudy 53 11.7 34 1.1 48 48 NE 8 13 30.46 1032 10 16 0.00 0.00
1:59 pm 13:59 Sunny 55 12.8 33 0.6 44 44 NE 8 13 30.44 1031 10 16 0.00 0.00
2:59 pm 14:59 Partly Cloudy 56 13.3 32 0 40 40 ENE 8 13 30.42 1030 10 16 0.00 0.00
3:59 pm 15:59 Partly Cloudy 55 12.8 36 2.2 49 49 E 9 15 30.40 1029 10 16 0.00 0.00
4:59 pm 16:59 Partly Cloudy 55 12.8 35 1.7 47 47 ENE 9 15 30.39 1029 10 16 0.00 0.00
5:59 pm 17:59 Partly Cloudy 55 12.8 35 1.7 47 47 E 9 15 30.38 1029 10 16 0.00 0.00
6:59 pm 18:59 Partly Cloudy 54 12.2 35 1.7 49 49 ESE 6 9 30.38 1029 10 16 0.00 0.00
7:59 pm 19:59 Partly Cloudy 51 10.6 34 1.1 52 52 SE 7 11 30.40 1029 10 16 0.00 0.00
8:59 pm 20:59 Partly Cloudy 49 9.4 33 0.6 55 55 SE 5 7 30.40 1029 10 16 0.00 0.00
9:59 pm 21:59 Mostly Cloudy 49 9.4 34 1.1 56 56 SE 6 9 30.40 1030 10 16 0.00 0.00
10:59 pm 22:59 Mostly Cloudy 48 8.9 38 3.3 68 68 SSE 7 11 30.40 1030 10 16 0.00 0.00
11:59 pm 23:59 Mostly Cloudy 47 8.3 38 3.3 71 71 S 5 7 30.41 1030 10 16 0.00 0.00

Powered by AerisWeather